Погода в Борисове

Погода в Борисове : погода сейчас, прогноз погоды и архив. Всё, что Вы хотите узнать о погоде в Борисове!

Хотите узнать прогноз погоды в Борисове? Тогда Вам сюда: Погода в Борисове

Поиск расширенной информации на нашем сайте:

Полезная информация:

Другие новости

Новости СМИ2

Главная страница сайта

Новости сайта

03.07.2017

Напоминаем, что на нашем специализированном сайте Метеоцентр.Азия вы можете получить высокодетализированные автоматические прогнозы погоды по пунктам России, СНГ и мира в авиационном формате (включающие направление и скорость ветра, видимость, явления погоды, количество и форму облачности, нижнюю и верхнюю границу облачности).

Рекомендуем:

Погода в Борисове - сегодня

Время (UTC), дата Ветер
(°,м/с) 
Видим.   Явления Облачность Т
(°С)
Тd
(°С)
f(%) Тe
(°С)
Pmin
(гПа)
dP
(гПа)
Po
(мм)
O2
(г/м3)
Тmin Tmax R s Состояние
почвы
06 22.03.19 280 (З) 4{10}  35000 м  в посл. час ливневой дождь  9/9 600 м кучево-дожд. 
[Cb calv]
+7 +5.3 89 +6  1018.4  1.2  747  292  +5.2       
09 22.03.19 320 (СЗ) 6-18{18}  35000 м  {ливн. осадки}  3/3 600 м 
[Cu med, cong]
+7.1 -4.6 43 +5  1020.6  2.1  748  294           
12 22.03.19 320 (СЗ) 5-13{18}  35000 м  {ливн. осадки}  ясно 
+7.7 -7.4 33 +6  1022.1  1.5  749  294           
15 22.03.19 290 (З) 5-12{19}  35000 м    ясно 
+7.6 -7.8 33 +6  1023  0.9  750  295           
18 22.03.19 320 (СЗ) 2{12}  35000 м    ясно 
+4.2 -7 44 +4  1024.8  1.5  751  299    +8.3  0.8     
21 22.03.19 310 (СЗ) 3-10  35000 м    ясно 
+2.5 -6.2 53 +1  1026  752  301           
00 23.03.19 320 (СЗ) 2{10}  35000 м    ясно 
+0.2 -5.7 64 -1  1026.8  0.6  752  304           
03 23.03.19 320 (СЗ) 35000 м    ясно 
-1.1 -5.8 70 -2  1027.6  0.6  753  305           
06 23.03.19 320 (СЗ) 35000 м    ясно 
+0.1 -5.2 67 -2  1028.3  0.8  753  304  -1.6         
09 23.03.19 320 (СЗ) 35000 м    4/0 верхняя 
[Ci fib]
+5.4 -4.5 49 +5  1027.5  -0.3  753  298           
12 23.03.19 310 (СЗ) 35000 м    3/0 верхняя 
[Ci fib]
+8.6 -4.3 40 +10  1025  -2.1  752  294           
15 23.03.19 250 (З) 20000 м    8/0 верхняя 
[Ci fib]
+10.9 -6.1 30 +12  1022.8  -2  750  291           
18 23.03.19 200 (Ю) 10 км    ясно 
+5.1 -6.3 43 +6  1021.8  -1.5  749  297    +11.1       
21 23.03.19 180 (Ю) 21000 м    9/9 1000 м 
[Sc]
+4.4 -5.2 50 +4  1019.7  -2.1  747  297           
00 24.03.19 200 (Ю) 30000 м    10/10 1000 м 
[Sc]
+5.4 -5 47 +5  1016.3  -3.2  745  295           
03 24.03.19 220 (ЮЗ) 21000 м  {ливн. осадки}  ясно 
+2.7 +1.9 94 +3  1015.2  -1.3  744  297           
06 24.03.19 250 (З) 20000 м  {ливн. осадки}  ясно 
+4.3 +2.9 91 +4  1015.7  -0.6  744  295  +2.5       
09 24.03.19 270 (З) 35000 м    4/0 верхняя 
[Ci fib]
+8.4 -0.5 53 +8  1015.5  0.2  745  291           
12 24.03.19 240 (ЮЗ) 4{10}  35000 м    5/0 верхняя 
[Ci fib]
+9.3 -4.3 38 +8  1014.9  -0.6  744  290           
15 24.03.19 250 (З) 2{11}  35000 м    9/4 1000 м средняя 
[Sc|As trans]
+8.5 -5.8 36 +9  1014  -0.9  743  291           
18 24.03.19 310 (СЗ) 35000 м    3/0 верхняя 
[Ci sp]
+5.3 -5.2 47 +6  1014.6  0.3  744  294    +10.2       
21 24.03.19 270 (З) 35000 м    ясно 
+1.4 -4.6 64 +2  1014.5  -0.4  743  298           
00 25.03.19 280 (З) 35000 м    3/0 средняя 
[Ac trans]
+0.6 -3.2 76 +1  1013.4  -1.2  742  299           
03 25.03.19 260 (З) 30000 м    4/0 верхняя 
[Ci sp]
-1.9 -2.9 93 -1  1012.5  -1.1  742  301           
06 25.03.19 200 (Ю) 26000 м    ясно 
+1 -1.5 83 +2  1011.2  -1  741  298  -2.6         
Время (UTC), дата Ветер
(°,м/с) 
Видим.   Явления Облачность Т
(°С)
Тd
(°С)
f(%) Тe
(°С)
Pmin
(гПа)
dP
(гПа)
Po
(мм)
O2
(г/м3)
Тmin Tmax R s Состояние
почвы

Для получения пояснительной информации подведите курсор к названию столбца.

ПОГОДА в Борисове - архив

Всё, что Вы хотите узнать о погоде в Борисове - удобно и подробно!

Выберите нужную дату (начиная с 1 января 2018* года) и нажмите кнопку "Найти".
Будут отображены архивные сводки погоды по пункту Борисов, начиная с указанной даты.


Отображать данные в формате CSV (для использования в таблицах Excel)


Внимание! Наш архив погоды предназначен исключительно для личного некоммерческого использования в познавательных целях. Если Вам необходимы официальные справки о состоянии погоды (для производственных, юридических, коммерческих и т.п. целей), обращайтесь в органы Росгидромета.

*Примечание: данная дата относится к архиву по метеостанциям СССР (Россия, СНГ, Балтия).
Архив по метеостанциям Зарубежной Европы и Азии (кроме Китая) хранится 10 дней, по другим регионам земного шара (Китай, Африка, Америка, Австралия, Океания) - 1 день.

Борисов - район местоположения метеостанции


Название, широта, долгота, высота метеостанции:
Борисов 54.3°ш. 28.5°д. 189 м над ур. моря [Беларусь]

Дополнительная информация

В oтличие oт бoльшинства пoгoдных сайтoв мы публикуем пoдрoбную метеoинфoрмацию в детальнoм прoфессиoнальнoм фoрмате.

Характеристики температуры и влажнoсти вoздуха измеряются на высoте 2 м в тени вдали oт зданий и деревьев.
Скoрoсть ветра измеряется на высoте 10 м (на урoвне рoста челoвека скoрoсть ветра ниже в 1.5-2 раза). Если метеoстанция нахoдится в гoрoде или в лесу, тo скoрoсть ветра занижена на 2-4 м/с пo сравнению с oткрытым местoм. Скoрoсть ветра над акватoриями крупных рек и oзёр, а также на вершинах хoлмoв на 2-5 м/с выше, чем в oбычных услoвиях.
Атмoсфернoе давление в разных тoчках местнoсти мoжет значительнo oтличаться oт давления на метеoстанции, в зависимoсти oт услoвий рельефа (при пoдъёме на 10 м давление пoнижается примернo на 1 мм рт.ст.).